EDT,Max TemperatureF,Mean TemperatureF,Min TemperatureF,Max Dew PointF,MeanDew PointF,Min DewpointF,Max Humidity, Mean Humidity, Min Humidity, Max Sea Level PressureIn, Mean Sea Level PressureIn, Min Sea Level PressureIn, Max VisibilityMiles, Mean VisibilityMiles, Min VisibilityMiles, Max Wind SpeedMPH, Mean Wind SpeedMPH, Max Gust SpeedMPH,PrecipitationIn, CloudCover, Events, WindDirDegrees
2012-9-1,66,56,46,47,43,39,87,65,41,30.13,30.04,29.85,10,10,10,17,8,22,0.00,1,,338
2012-9-2,69,54,39,51,45,38,93,68,42,30.15,30.12,30.09,10,10,10,9,4,16,0.00,2,,154
2012-9-3,72,60,47,55,51,46,100,82,44,30.19,30.14,30.06,10,6,0,8,4,20,0.00,2,Fog,156
2012-9-4,75,65,55,62,57,53,96,77,61,30.07,29.98,29.91,10,10,10,13,6,17,0.00,1,,166
2012-9-5,76,67,57,61,59,55,94,81,55,29.90,29.84,29.79,10,10,10,12,6,17,0.00,4,,93
2012-9-6,68,61,54,57,54,52,94,80,63,29.93,29.88,29.84,10,10,10,12,5,16,0.00,5,,60
2012-9-7,75,65,54,60,56,53,100,84,48,29.87,29.85,29.83,10,8,0,12,5,24,0.09,5,Fog-Rain,173
2012-9-8,73,64,54,65,60,53,100,86,65,29.87,29.71,29.47,10,10,2,28,14,40,0.41,5,Rain,152
2012-9-9,64,57,49,64,52,45,100,81,62,29.83,29.68,29.52,10,9,1,15,9,20,0.01,6,Rain,244
2012-9-10,60,53,46,48,46,42,100,80,62,29.93,29.86,29.81,10,10,10,18,11,24,0.00,6,,324
2012-9-11,66,54,41,43,41,39,86,63,40,30.16,30.05,29.93,10,10,10,20,9,25,0.00,0,,299
2012-9-12,77,62,46,55,50,43,86,68,43,30.24,30.20,30.16,10,10,10,15,6,20,0.00,0,,197
2012-9-13,81,68,54,61,55,52,90,68,44,30.22,30.18,30.14,10,10,10,15,7,21,0.00,0,,188
2012-9-14,80,67,54,60,57,52,93,73,46,30.17,30.11,29.99,10,10,10,14,7,18,0.00,0,,167
2012-9-15,66,55,44,61,53,37,94,80,62,29.98,29.88,29.79,10,9,2,24,10,32,0.11,7,Rain-Thunderstorm,207
2012-9-16,59,51,42,39,36,31,82,61,39,29.90,29.83,29.79,10,10,10,26,12,36,0.00,3,,272
2012-9-17,67,54,41,49,43,37,89,66,40,29.99,29.96,29.91,10,10,10,15,7,23,0.00,0,,242
2012-9-18,69,58,47,57,52,46,96,80,55,30.01,29.90,29.67,10,10,8,31,16,58,0.13,3,Rain,153
2012-9-19,64,52,39,63,54,36,100,87,49,30.21,29.73,29.55,10,6,1,29,12,41,1.17,6,Rain,230
2012-9-20,59,45,31,39,34,29,100,74,33,30.33,30.26,30.18,10,8,0,13,5,16,0.00,0,Fog,111
2012-9-21,59,50,41,50,44,39,100,85,62,30.21,30.15,30.08,10,10,10,14,8,18,0.00,4,,131
2012-9-22,69,60,51,64,57,50,100,96,83,30.09,29.95,29.77,10,6,0,16,9,23,0.10,8,Fog-Rain,128
2012-9-23,63,53,42,63,51,35,100,82,44,29.98,29.79,29.72,10,9,2,26,8,32,0.13,5,Rain,225
2012-9-24,59,48,36,42,38,35,93,72,47,30.07,30.02,29.98,10,10,10,14,5,18,0.00,2,,214
2012-9-25,61,50,38,45,41,36,100,81,51,30.03,29.96,29.93,10,8,0,21,9,30,0.00,4,Fog,173
2012-9-26,57,51,44,54,49,43,100,88,74,30.03,29.93,29.87,10,9,2,20,8,25,0.16,7,Rain,202
2012-9-27,54,46,37,42,36,34,97,74,52,30.24,30.10,29.96,10,10,10,18,10,25,0.00,3,,316
2012-9-28,56,43,30,39,35,30,100,77,49,30.27,30.21,30.13,10,9,1,10,5,14,0.00,0,,190
2012-9-29,51,46,40,47,43,37,93,86,71,30.16,30.11,30.03,10,10,4,20,8,29,0.06,8,Rain,61
2012-9-30,58,54,49,56,52,46,100,95,92,30.03,29.82,29.54,10,6,2,25,13,41,0.60,8,Rain,54